{"data":{"norad_id":48586,"intl_designator":"2021-041AK","name":"STARLINK-2241","alt_names":[],"object_type":"PAYLOAD","status":"ACTIVE","operator":null,"country":"US","launch_date":"2021-05-15","launch_site_code":"AFETR","launch_vehicle":null,"mission":null,"orbit_class":"UNKNOWN","rcs_meters":null,"size_class":null,"mass_kg":null,"dimensions":null,"purposes":["comms"],"wikipedia_slug":null,"has_3d_model":false,"image_url":null,"decayed_at":null,"tle_current":{"epoch":"2026-09-19T18:29:58.602624Z","epoch_age_seconds":100294,"freshness":"FRESH","line1":"1 48586U 21041AK  26262.77081716 -.00000003  00000+0  11665-4 0  9990","line2":"2 48586  53.1603 325.7044 0001003  74.1653 285.9459 15.31695032294682","mean_motion":15.31695032,"eccentricity":0.0001003,"inclination_deg":53.1603,"raan_deg":325.7044,"arg_perigee_deg":74.1653,"mean_anomaly_deg":285.9459,"bstar":1.1665e-5,"rev_number":29468,"period_min":94.013492889621,"perigee_km":470.06786076716,"apogee_km":471.44174846316,"semimajor_km":6848.8918046152,"source":"CELESTRAK","updated_at":"2026-09-20T09:00:39.137395Z"}}}